User: anonymous   Login
Location: Unspecified
(0.0000°N, 0.0000°E)
Time: 15:23:13
(UTC+00:00)
Language:

MetOp-A - Orbit

View from above orbital plane
View from above orbital plane
View from above satellite
View from above satellite

Ground track
Ground track

The orbit data is extracted from the following two-line orbital elements,

1 29499U 06044A   18051.95971065 -.00000008 +00000-0 +15976-4 0  9995
2 29499 098.6438 111.9658 0001548 137.5515 220.1483 14.21517448588298
Epoch (UTC): 20 February 2018 23:01:59
Eccentricity: 0.0001548
inclination: 98.6438°
perigee height: 819 km
apogee height: 821 km
right ascension of ascending node: 111.9658°
argument of perigee: 137.5515°
revolutions per day: 14.21517448
mean anomaly at epoch: 220.1483°
orbit number at epoch: 58829

The dashed part of the orbit path shows where the satellite is in the earth's shadow,  

DLR